FW2726 Weather Reports


Display with metric or nautical units.
time (UTC)temp
F
wind
direction
speed
MPH
gust
MPH
rain 1hr
in
rain 24hr
in
rain mn
in
humidity
%
barometer
mb
20260507193059 66 326 11.0 16.0 0.00 0.00 0.00 36 1004.0
20260507191605 66 351 13.0 19.0 0.00 0.00 0.00 38 1004.3
20260507190113 66 265 7.0 15.0 0.00 0.00 0.00 37 1004.3
20260507184557 64 275 7.0 14.0 0.00 0.00 0.00 38 1004.5
20260507183116 64 258 8.0 17.0 0.00 0.00 0.00 37 1004.5
20260507181601 63 247 10.0 16.0 0.00 0.00 0.00 40 1004.7
20260507180106 62 262 9.0 16.0 0.00 0.00 0.00 39 1004.9
20260507174605 60 259 10.0 16.0 0.00 0.00 0.00 41 1005.3
20260507173115 58 251 8.0 14.0 0.00 0.00 0.00 38 1005.6
20260507171559 56 224 10.0 15.0 0.00 0.00 0.00 38 1005.7
20260507170100 55 264 10.0 18.0 0.00 0.00 0.00 38 1005.8
20260507164633 54 239 11.0 16.0 0.00 0.00 0.00 41 1005.9
20260507163101 53 229 13.0 17.0 0.00 0.00 0.00 43 1006.1
20260507161603 50 240 11.0 15.0 0.00 0.00 0.00 47 1006.1
20260507160105 49 243 11.0 15.0 0.00 0.00 0.00 48 1006.3
20260507154600 48 254 10.0 16.0 0.00 0.00 0.00 46 1006.5
20260507153059 47 236 12.0 17.0 0.00 0.00 0.00 43 1006.6
20260507151600 46 230 13.0 19.0 0.00 0.00 0.00 43 1006.7
20260507150059 45 210 11.0 17.0 0.00 0.00 0.00 45 1006.7
20260507144603 44 214 10.0 16.0 0.00 0.00 0.00 45 1006.9
20260507143119 42 217 10.0 15.0 0.00 0.00 0.00 50 1006.8
20260507141601 41 225 9.0 13.0 0.00 0.00 0.00 51 1007.1
20260507140059 41 230 11.0 15.0 0.00 0.00 0.00 50 1007.3
20260507134600 41 212 11.0 17.0 0.00 0.00 0.00 49 1007.1
20260507133101 40 225 11.0 16.0 0.00 0.00 0.00 48 1007.3
20260507131607 40 238 11.0 15.0 0.00 0.00 0.00 49 1007.5
20260507130059 39 211 11.0 15.0 0.00 0.00 0.00 48 1007.4
20260507124605 38 216 10.0 14.0 0.00 0.00 0.00 49 1007.4
20260507123102 38 218 9.0 15.0 0.00 0.00 0.00 49 1007.4
20260507121613 37 212 9.0 15.0 0.00 0.00 0.00 49 1007.6
20260507120059 37 207 10.0 14.0 0.00 0.00 0.00 48 1007.6
20260507114610 37 196 10.0 14.0 0.00 0.00 0.00 48 1007.6
20260507113129 37 215 10.0 16.0 0.00 0.00 0.00 49 1007.7
20260507111601 37 210 11.0 15.0 0.00 0.00 0.00 49 1007.7
20260507110109 36 199 10.0 15.0 0.00 0.00 0.00 50 1007.9
20260507104600 36 213 9.0 14.0 0.00 0.00 0.00 50 1008.1
20260507103100 36 192 8.0 12.0 0.00 0.00 0.00 49 1008.2
20260507101600 36 214 9.0 12.0 0.00 0.00 0.00 49 1008.4
20260507100115 36 202 9.0 13.0 0.00 0.00 0.00 48 1008.3
20260507094610 37 202 9.0 14.0 0.00 0.00 0.00 47 1008.5
20260507093059 37 210 9.0 13.0 0.00 0.00 0.00 47 1008.6
20260507091635 36 185 9.0 12.0 0.00 0.00 0.00 49 1008.5
20260507090100 35 183 9.0 11.0 0.00 0.00 0.00 51 1008.5
20260507084611 34 196 8.0 10.0 0.00 0.00 0.00 53 1008.6
20260507083101 33 197 8.0 12.0 0.00 0.00 0.00 54 1008.6
20260507081602 33 184 8.0 12.0 0.00 0.00 0.00 54 1008.7
20260507074604 34 189 9.0 12.0 0.00 0.00 0.00 53 1008.7
20260507073104 34 197 8.0 12.0 0.00 0.00 0.00 53 1008.6
20260507071559 33 185 9.0 11.0 0.00 0.00 0.00 53 1008.7
20260507070105 33 179 6.0 8.0 0.00 0.00 0.00 53 1008.7
20260507064600 33 177 7.0 10.0 0.00 0.00 0.00 53 1008.8
20260507063059 34 165 8.0 11.0 0.00 0.00 0.00 53 1008.7
20260507061559 34 172 8.0 11.0 0.00 0.00 0.00 52 1008.8
20260507060104 34 170 8.0 12.0 0.00 0.00 0.00 53 1008.6
20260507054600 35 158 7.0 9.0 0.00 0.00 0.00 52 1008.7
20260507053101 35 154 6.0 10.0 0.00 0.00 0.00 52 1008.7
20260507051603 35 146 7.0 10.0 0.00 0.00 0.00 52 1008.7
20260507050059 36 154 8.0 10.0 0.00 0.00 0.00 52 1008.7
20260507044618 37 164 6.0 9.0 0.00 0.00 0.00 52 1008.6
20260507043118 37 152 6.0 8.0 0.00 0.00 0.00 52 1008.7
20260507041604 38 150 5.0 8.0 0.00 0.00 0.00 51 1008.8
20260507040058 39 150 5.0 8.0 0.00 0.00 0.00 48 1008.8
20260507034559 39 151 5.0 8.0 0.00 0.00 0.00 46 1008.8
20260507033059 38 142 5.0 8.0 0.00 0.00 0.00 46 1008.7
20260507031600 41 145 5.0 7.0 0.00 0.00 0.00 42 1008.6
20260507030057 43 161 4.0 6.0 0.00 0.00 0.00 37 1008.6
20260507024559 45 152 4.0 5.0 0.00 0.00 0.00 36 1008.5
20260507023110 48 158 4.0 6.0 0.00 0.00 0.00 32 1008.6
20260507021559 50 176 1.0 4.0 0.00 0.00 0.00 29 1008.6
20260507020103 52 180 3.0 5.0 0.00 0.00 0.00 25 1008.6
20260507014559 54 202 2.0 4.0 0.00 0.00 0.00 23 1008.7
20260507013100 54 213 1.0 6.0 0.00 0.00 0.00 22 1008.6
20260507011558 55 220 2.0 6.0 0.00 0.00 0.00 21 1008.8
20260507010101 56 0 0.0 7.0 0.00 0.00 0.00 19 1008.8
20260507004605 57 205 3.0 8.0 0.00 0.00 0.00 20 1008.8
20260507003116 57 0 2.0 9.0 0.00 0.00 0.00 20 1008.9
20260507001615 57 268 5.0 10.0 0.00 0.00 0.00 19 1009.0
20260506234603 57 160 4.0 10.0 0.00 0.00 0.00 20 1009.3
20260506233103 58 321 3.0 10.0 0.00 0.00 0.00 19 1009.4
20260506231608 58 159 6.0 14.0 0.00 0.00 0.00 21 1009.4
20260506230115 58 0 4.0 9.0 0.00 0.00 0.00 19 1009.4
20260506224559 58 201 2.0 9.0 0.00 0.00 0.00 21 1009.5
20260506223103 57 158 3.0 9.0 0.00 0.00 0.00 20 1009.8
20260506221614 57 106 7.0 14.0 0.00 0.00 0.00 21 1010.0
20260506220100 56 204 3.0 8.0 0.00 0.00 0.00 21 1010.3
20260506214600 56 160 2.0 6.0 0.00 0.00 0.00 23 1010.4
20260506213106 56 337 3.0 7.0 0.00 0.00 0.00 21 1010.7
20260506211600 55 176 3.0 11.0 0.00 0.00 0.00 22 1010.7
20260506204601 55 10 2.0 7.0 0.00 0.00 0.00 22 1011.1
20260506203120 55 197 5.0 11.0 0.00 0.00 0.00 22 1011.3
20260506201558 56 194 5.0 9.0 0.00 0.00 0.00 24 1011.4
20260506194610 55 0 2.0 9.0 0.00 0.00 0.00 24 1011.6